Regional Weather Roundup
Issued by NWS

Home | Current Version | Previous Version | Graphics & Text | Print | Product List | Glossary On
Versions: 1 2 3 4 5 6 7 8 9 10 11 12 13 14 15 16 17 18 19 20 21 22 23 24 25 26 27 28 29 30 31 32 33 34 35 36 37 38 39 40 41 42 43 44 45 46 47 48 49 50
000
ASUS43 KIND 011659
RWRIN

WEATHER ROUNDUP FOR INDIANA
NATIONAL WEATHER SERVICE INDIANAPOLIS IN
1200 PM EST SUN MAR 01 2015

NOTE: "FAIR" INDICATES FEW OR NO CLOUDS BELOW 12,000 FEET WITH NO
SIGNIFICANT WEATHER AND/OR OBSTRUCTIONS TO VISIBILITY.

* - STATION DOES NOT REPORT WEATHER SUCH AS PRECIPITATION OR FOG.

+ - STATION NOT QUALITY CONTROLLED BY THE NATIONAL WEATHER SERVICE.
    USE DATA WITH CAUTION...ESPECIALLY DEWPOINT AND RELATIVE
    HUMIDITY OBSERVATIONS.

INZ001>003-010>013-019-020-011800-
NORTHWEST INDIANA

CITY           SKY/WX    TMP DP  RH WIND       PRES   REMARKS
GARY /AIRPORT/ LGT SNOW  25  16  68 SW5       30.37F WCI  19
VALPARAISO     NOT AVBL

$$

LMZ046-743>745-011800-
SOUTHERN LAKE MICHIGAN

STATION/POSITION TIME  TEMP WIND        PRES
                       AIR  DIR/SP/G
                 (UTC) (F)  (DEG/KT/KT) (MB)
MICHIGAN CITY    1600   20  150/  4/  4   N/A

$$

INZ004-005-014>016-021>024-011800-
NORTH CENTRAL INDIANA

CITY           SKY/WX    TMP DP  RH WIND       PRES   REMARKS
ELKHART        LGT SNOW  19  14  79 CALM      30.35F VSB 1
GOSHEN         SNOW      20  17  88 CALM      30.34F VSB 1/4
SOUTH BEND     LGT SNOW  20  16  84 S3        30.35F FOG

$$

INZ006>009-017-018-025>027-011800-
NORTHEAST INDIANA

CITY           SKY/WX    TMP DP  RH WIND       PRES   REMARKS
ANGOLA *+      CLOUDY    19   9  63 SW3       30.33S VSB 1
FORT WAYNE     LGT SNOW  22  18  85 CALM      30.35F VSB 1

$$

INZ028-029-035-036-043>045-051>053-011800-
WEST CENTRAL INDIANA

CITY           SKY/WX    TMP DP  RH WIND       PRES   REMARKS
CRAWFORDSVL +  LGT SNOW  26  20  80 NW7       30.34F WCI  18
GREENCASTLE +  CLOUDY    28  25  86 N3        30.34S FOG
LAFAYETTE      LGT SNOW  25  22  88 CALM      30.36F VSB 1
TERRE HAUTE    CLOUDY    30  27  88 N6        30.37S FOG     WCI  24

$$

INZ030>032-037>040-046>048-054>057-064-065-011800-
CENTRAL INDIANA

CITY           SKY/WX    TMP DP  RH WIND       PRES   REMARKS
GREENWOOD *+   CLOUDY    30  27  86 NW3       30.35F
INDIANAPOLIS   DRIZZLE   29  26  89 W3        30.34F FOG
-EAGLE CREEK   CLOUDY    28  26  92 NW3       30.34S FOG
KOKOMO *+      PTSUNNY   25  19  80 CALM      30.35F VSB 1
MT COMFORT *+  CLOUDY    30  25  80 CALM      30.34S
SHELBYVILLE    CLOUDY    33  29  85 N5        30.33F FOG     WCI  29

$$

INZ033-034-041-042-049-050-058-059-011800-
EAST CENTRAL INDIANA

CITY           SKY/WX    TMP DP  RH WIND       PRES   REMARKS
MUNCIE         LGT SNOW  28  25  88 NW5       30.33F FOG     WCI  23

$$

INZ060-061-067>069-081>083-085>088-011800-
SOUTHWEST INDIANA

CITY           SKY/WX    TMP DP  RH WIND       PRES   REMARKS
EVANSVILLE     CLOUDY    36  29  75 W3        30.36S
HUNTINGBURG *+ CLOUDY    34  28  80 NW6       30.35F WCI  29

$$

INZ062-063-066-070>080-084-089>092-011800-
SOUTH CENTRAL AND SOUTHEAST INDIANA

CITY           SKY/WX    TMP DP  RH WIND       PRES   REMARKS
BLOOMINGTON    CLOUDY    32  30  92 N3        30.33F FOG
SEYMOUR +      CLOUDY    34  30  86 CALM      30.35S

$$



USA.gov is the U.S. government's official web portal to all federal, state and local government web resources and services.